#timestamp,LO_Frequency,Hit 
1501120815.9,286047004.6,N
1501120835.7,286047007.3,N
1501120855.5,286047007.4,N
1501120875.3,286047004.8,N
1501120895.2,286047007.5,N
1501120915.0,286047007.6,N
1501120915.9,286047007.6,N
1501120935.7,286047004.6,N
1501120955.6,286047008.8,N
1501120975.4,286047007.9,N
1501120995.2,286047007.3,N
1501121015.1,286047008.8,N
1501121016.0,286047008.8,N
1501121035.8,286047006.3,N
1501121055.6,286047007.1,N
1501121075.5,286047007.1,N
1501121095.3,286047009.0,N
1501121115.1,286047008.7,N
1501121135.8,286047007.0,N
1501121155.7,286047007.1,N
1501121175.5,286047007.4,N
1501121195.3,286047004.9,N
1501121215.2,286047004.9,N
1501121235.9,286047007.6,N
1501121255.7,286047007.2,N
1501121275.6,286047006.7,N
1501121295.4,286047003.7,N
1501121315.2,286047003.2,N
1501121335.1,286047007.2,N
1501121336.0,286047007.2,N
1501121355.8,286047007.3,N
1501121375.6,286047007.0,N
1501121395.4,286047007.1,N
1501121415.3,286047004.5,N
1501121435.1,286047004.7,N
1501121455.8,286047006.3,N
1501121475.7,286047006.9,N
1501121495.5,286047008.2,N
1501121515.3,286047008.5,N
1501121535.2,286047010.0,N
1501121555.9,286047009.8,N
1501121575.7,286047009.4,N
1501121595.5,286047008.8,N
1501121615.4,286047007.9,N
1501121635.2,286047009.2,N
1501121655.0,286047008.5,N
1501121655.9,286047008.5,N
1501121675.8,286047009.1,N
1501121695.6,286047008.8,N
1501121715.4,286047008.8,N
1501121735.3,286047008.1,N
1501121755.1,286047008.3,N
1501121756.0,286047008.3,N
1501121775.4,286047009.7,N
1501121795.2,286047009.4,N
1501121815.0,286047007.7,N
1501121816.0,286047007.7,N
1501121835.8,286047010.5,N
1501121855.6,286047008.1,N
1501121875.4,286047008.6,N
1501121895.3,286047012.0,N
1501121915.1,286047012.2,N
1501121935.8,286047013.1,N
1501121955.7,286047012.6,N
1501121975.5,286047011.7,N
1501121995.3,286047012.4,N
1501122015.2,286047013.3,N
1501122035.9,286047011.3,N
1501122055.7,286047013.2,N
1501122075.6,286047011.5,N
1501122095.4,286047011.3,N
1501122115.2,286047012.0,N
1501122135.0,286047009.9,N
1501122135.9,286047009.9,N
1501122155.8,286047012.7,N
1501122175.6,286047011.3,N
1501122195.4,286047012.3,N
1501122215.3,286047011.9,N
1501122235.1,286047009.4,N
1501122255.8,286047009.9,N
1501122275.7,286047010.7,N
1501122295.5,286047012.1,N
1501122315.3,286047010.0,N
1501122335.2,286047010.5,N
1501122355.9,286047008.0,N
1501122375.7,286047008.6,N
1501122395.5,286047008.2,N
1501122415.4,286047008.9,N
1501122435.2,286047010.4,N
1501122455.0,286047011.6,N
1501122455.9,286047011.6,N
1501122475.8,286047009.8,N
1501122495.6,286047011.2,N
1501122515.4,286047009.8,N
1501122535.3,286047010.5,N
1501122555.1,286047012.2,N
1501122556.0,286047012.2,N
1501122575.8,286047011.7,N
1501122595.7,286047013.2,N
1501122615.5,286047011.2,N
1501122635.3,286047009.5,N
1501122655.1,286047012.3,N
1501122675.9,286047013.5,N
1501122695.7,286047009.3,N
1501122715.5,286047011.1,N
1501122735.4,286047011.1,N
1501122755.2,286047011.9,N
1501122775.0,286047013.5,N
1501122775.9,286047013.5,N
1501122795.8,286047010.9,N
1501122815.6,286047011.8,N
1501122835.4,286047011.1,N
1501122855.3,286047009.9,N
1501122875.1,286047011.0,N
1501122876.0,286047011.0,N
1501122895.8,286047011.0,N
1501122915.6,286047013.5,N
1501122935.5,286047013.9,N
1501122955.3,286047009.6,N
1501122975.1,286047008.7,N
1501122995.9,286047006.1,N
1501123015.7,286047010.3,N
1501123035.5,286047011.7,N
1501123055.4,286047010.2,N
1501123075.2,286047010.1,N
1501123095.0,286047012.0,N
1501123095.9,286047012.0,N
1501123115.8,286047010.2,N
1501123135.6,286047012.4,N
1501123155.4,286047011.6,N
1501123175.2,286047011.7,N
1501123195.1,286047015.3,Y
1501123196.0,286047015.3,Y
1501123215.8,286047006.4,N
1501123235.7,286047004.9,N
1501123255.5,286047007.3,N
1501123275.3,286047006.4,N
1501123295.2,286047006.3,N
1501123315.9,286047004.6,N
1501123335.7,286047007.6,N
1501123355.5,286047003.1,N
1501123375.4,286047005.9,N
1501123395.2,286047003.3,N
1501123415.0,286047007.3,N
1501123415.9,286047007.3,N
1501123435.8,286047005.2,N
1501123455.6,286047004.5,N
1501123475.4,286047009.2,N
1501123495.3,286047004.8,N
1501123515.1,286047003.1,N
1501123516.0,286047003.1,N
1501123535.8,286047006.0,N
1501123555.7,286047003.9,N
1501123575.5,286047003.9,N
1501123595.3,286047003.9,N
1501123615.1,286047002.7,N
1501123635.9,286047004.0,N
1501123655.7,286047002.0,N
1501123675.5,286047004.4,N
1501123695.4,286047004.0,N
1501123715.2,286047005.6,N
1501123735.0,286047005.7,N
1501123735.9,286047005.7,N
1501123755.8,286047005.8,N
1501123775.6,286047002.9,N
1501123795.4,286047007.1,N
1501123815.3,286047004.6,N
1501123835.1,286047005.4,N
1501123836.0,286047005.4,N
1501123855.8,286047005.9,N
1501123875.6,286047005.8,N
1501123895.5,286047003.4,N
1501123915.3,286047004.7,N
1501123935.1,286047007.0,N
1501123955.9,286047004.8,N
1501123975.7,286047003.0,N
1501123995.5,286047006.0,N
1501124015.4,286047005.2,N
1501124035.2,286047004.6,N
1501124055.0,286047004.6,N
1501124055.9,286047004.6,N
1501124075.8,286047005.4,N
1501124095.6,286047005.8,N
1501124115.4,286047003.4,N
1501124135.6,286047003.8,N
1501124155.5,286047006.5,N
1501124175.3,286047007.0,N
1501124195.1,286047005.1,N
1501124215.9,286047006.9,N
1501124235.7,286047005.3,N
1501124255.7,286047005.0,N
1501124275.5,286047003.7,N
1501124295.4,286047005.4,N
1501124315.2,286047007.3,N
1501124335.0,286047005.1,N
1501124335.9,286047005.1,N
1501124355.8,286047004.8,N
1501124375.6,286047005.5,N
1501124395.4,286047005.3,N
